• In Germany
  • List of Countries
  • For 7 days
  • Water Temperature
  • Satellite Maps
  • Weather Map
  • Weather Widgets
  • user-avatar
    Login

    Hourly Weather Ioannina

    Today, 28 May, Monday

    Time Temperature Precipitation Wind Pressure Humidity
    00:00 +16°C° 0 mm 1 mps 689 mmHg 77%
    01:00 +15°C° 0 mm 1 mps 688 mmHg 77%
    02:00 +15°C° 0 mm 1 mps 688 mmHg 78%
    03:00 +15°C° 0 mm 1 mps 688 mmHg 78%
    04:00 +14°C° 0 mm 1 mps 688 mmHg 79%
    05:00 +16°C° 0 mm 1 mps 689 mmHg 75%
    06:00 +19°C° 0 mm 1 mps 689 mmHg 71%
    07:00 +21°C° 0 mm 1 mps 690 mmHg 67%
    08:00 +22°C° 0 mm 1 mps 690 mmHg 62%
    09:00 +24°C° 0 mm 1 mps 690 mmHg 56%
    10:00 +26°C° 0 mm 1 mps 691 mmHg 51%
    11:00 +26°C° 0.2 mm 1 mps 690 mmHg 52%
    12:00 +26°C° 0.2 mm 1 mps 690 mmHg 53%
    13:00 +25°C° 0.2 mm 2 mps 690 mmHg 54%
    14:00 +25°C° 0.5 mm 2 mps 690 mmHg 56%
    15:00 +25°C° 0.5 mm 1 mps 689 mmHg 58%
    16:00 +24°C° 0.5 mm 1 mps 689 mmHg 61%
    17:00 +22°C° 0.3 mm 1 mps 689 mmHg 67%
    18:00 +21°C° 0.3 mm 1 mps 688 mmHg 73%
    19:00 +19°C° 0.3 mm 1 mps 688 mmHg 79%
    20:00 +19°C° 0 mm 1 mps 688 mmHg 80%
    21:00 +18°C° 0 mm 1 mps 688 mmHg 81%
    22:00 +16°C° 0 mm 1 mps 688 mmHg 83%
    23:00 +16°C° 0 mm 1 mps 688 mmHg 84%

    Tomorrow, 29 May, Tuesday

    Time Temperature Precipitation Wind Pressure Humidity
    00:00 +16°C° 0 mm 1 mps 688 mmHg 84%
    01:00 +15°C° 0 mm 1 mps 688 mmHg 85%
    02:00 +15°C° 0 mm 1 mps 688 mmHg 86%
    03:00 +15°C° 0 mm 1 mps 688 mmHg 86%
    04:00 +14°C° 0 mm 1 mps 688 mmHg 87%
    05:00 +16°C° 0 mm 1 mps 688 mmHg 81%
    06:00 +19°C° 0 mm 1 mps 688 mmHg 76%
    07:00 +20°C° 0 mm 1 mps 689 mmHg 71%
    08:00 +22°C° 0 mm 1 mps 689 mmHg 65%
    09:00 +24°C° 0 mm 1 mps 689 mmHg 59%
    10:00 +26°C° 0 mm 1 mps 689 mmHg 53%
    11:00 +26°C° 0.2 mm 1 mps 689 mmHg 54%
    12:00 +26°C° 0.2 mm 2 mps 689 mmHg 55%
    13:00 +25°C° 0.2 mm 2 mps 689 mmHg 56%
    14:00 +25°C° 0.9 mm 2 mps 688 mmHg 59%
    15:00 +24°C° 0.9 mm 1 mps 688 mmHg 63%
    16:00 +23°C° 0.9 mm 1 mps 688 mmHg 66%
    17:00 +22°C° 0.2 mm 1 mps 687 mmHg 71%
    18:00 +21°C° 0.2 mm 1 mps 687 mmHg 76%
    19:00 +19°C° 0.2 mm 1 mps 687 mmHg 81%
    20:00 +19°C° 0.1 mm 1 mps 687 mmHg 83%
    21:00 +18°C° 0.1 mm 1 mps 687 mmHg 85%
    22:00 +16°C° 0.1 mm 1 mps 687 mmHg 86%
    23:00 +16°C° 0 mm 1 mps 687 mmHg 86%

    Day after tomorrow, 30 May, Wednesday

    Time Temperature Precipitation Wind Pressure Humidity
    00:00 +15°C° 0 mm 1 mps 686 mmHg 87%
    01:00 +15°C° 0 mm 1 mps 686 mmHg 87%
    02:00 +15°C° 0 mm 1 mps 686 mmHg 87%
    03:00 +15°C° 0 mm 1 mps 686 mmHg 87%
    04:00 +14°C° 0 mm 1 mps 686 mmHg 87%
    05:00 +16°C° 0 mm 1 mps 686 mmHg 81%
    06:00 +19°C° 0 mm 1 mps 687 mmHg 75%
    07:00 +21°C° 0 mm 1 mps 687 mmHg 70%
    08:00 +22°C° 0.3 mm 1 mps 687 mmHg 66%
    09:00 +24°C° 0.3 mm 1 mps 688 mmHg 63%
    10:00 +25°C° 0.3 mm 1 mps 688 mmHg 59%
    11:00 +25°C° 1.2 mm 1 mps 688 mmHg 60%
    12:00 +25°C° 1.2 mm 2 mps 688 mmHg 61%
    13:00 +25°C° 1.2 mm 2 mps 687 mmHg 62%
    14:00 +24°C° 1.5 mm 2 mps 687 mmHg 66%
    15:00 +24°C° 1.5 mm 1 mps 687 mmHg 69%
    16:00 +23°C° 1.5 mm 1 mps 687 mmHg 72%
    17:00 +22°C° 0.3 mm 1 mps 686 mmHg 77%
    18:00 +20°C° 0.3 mm 1 mps 686 mmHg 82%
    19:00 +19°C° 0.3 mm 1 mps 686 mmHg 86%
    20:00 +19°C° 0.6 mm 1 mps 686 mmHg 88%
    21:00 +18°C° 0.6 mm 1 mps 686 mmHg 89%
    22:00 +16°C° 0.6 mm 0 mps 686 mmHg 91%
    23:00 +15°C° 0.2 mm 0 mps 686 mmHg 91%

    31 May, Thursday

    Time Temperature Precipitation Wind Pressure Humidity
    00:00 +15°C° 0.2 mm 0 mps 686 mmHg 92%
    01:00 +15°C° 0.2 mm 0 mps 685 mmHg 93%
    02:00 +14°C° 0 mm 0 mps 685 mmHg 92%
    03:00 +14°C° 0 mm 0 mps 685 mmHg 92%
    04:00 +14°C° 0 mm 0 mps 685 mmHg 91%
    05:00 +15°C° 0 mm 0 mps 685 mmHg 85%
    06:00 +17°C° 0 mm 0 mps 686 mmHg 79%
    07:00 +19°C° 0 mm 0 mps 686 mmHg 73%
    08:00 +23°C° 0 mm 1 mps 687 mmHg 65%
    09:00 +24°C° 0 mm 1 mps 687 mmHg 58%
    10:00 +26°C° 0 mm 1 mps 687 mmHg 50%
    11:00 +26°C° 0.2 mm 2 mps 687 mmHg 50%
    12:00 +26°C° 0.2 mm 2 mps 687 mmHg 51%
    13:00 +27°C° 0.2 mm 2 mps 687 mmHg 51%
    14:00 +26°C° 0.9 mm 2 mps 686 mmHg 55%
    15:00 +26°C° 0.9 mm 2 mps 686 mmHg 58%
    16:00 +25°C° 0.9 mm 2 mps 686 mmHg 62%
    17:00 +23°C° 0.6 mm 2 mps 686 mmHg 68%
    18:00 +20°C° 0.6 mm 2 mps 685 mmHg 74%
    19:00 +20°C° 0.6 mm 1 mps 685 mmHg 81%
    20:00 +19°C° 0.2 mm 1 mps 685 mmHg 83%
    21:00 +18°C° 0.2 mm 1 mps 685 mmHg 85%
    22:00 +16°C° 0.2 mm 1 mps 685 mmHg 87%
    23:00 +16°C° 0 mm 1 mps 685 mmHg 87%

    1 June, Friday

    Time Temperature Precipitation Wind Pressure Humidity
    00:00 +16°C° 0 mm 1 mps 685 mmHg 87%
    01:00 +15°C° 0 mm 1 mps 685 mmHg 87%
    02:00 +15°C° 0 mm 1 mps 684 mmHg 85%
    03:00 +15°C° 0 mm 1 mps 684 mmHg 83%
    04:00 +15°C° 0 mm 1 mps 684 mmHg 82%
    05:00 +16°C° 0 mm 1 mps 685 mmHg 76%
    06:00 +19°C° 0 mm 1 mps 685 mmHg 70%
    07:00 +21°C° 0 mm 1 mps 686 mmHg 64%
    08:00 +23°C° 0 mm 1 mps 686 mmHg 59%
    09:00 +24°C° 0 mm 1 mps 686 mmHg 53%
    10:00 +26°C° 0 mm 2 mps 686 mmHg 47%
    11:00 +27°C° 0 mm 2 mps 686 mmHg 46%
    12:00 +27°C° 0 mm 3 mps 686 mmHg 44%
    13:00 +28°C° 0 mm 3 mps 686 mmHg 43%
    14:00 +27°C° 0 mm 3 mps 686 mmHg 45%
    15:00 +27°C° 0 mm 3 mps 686 mmHg 48%
    16:00 +26°C° 0 mm 3 mps 685 mmHg 50%
    17:00 +24°C° 0.1 mm 3 mps 685 mmHg 59%
    18:00 +21°C° 0.1 mm 2 mps 685 mmHg 67%
    19:00 +19°C° 0.1 mm 2 mps 685 mmHg 76%
    20:00 +18°C° 0.1 mm 2 mps 685 mmHg 78%
    21:00 +17°C° 0.1 mm 2 mps 685 mmHg 80%
    22:00 +16°C° 0.1 mm 2 mps 685 mmHg 83%
    23:00 +16°C° 0 mm 1 mps 685 mmHg 81%

    2 June, Saturday

    Time Temperature Precipitation Wind Pressure Humidity
    00:00 +15°C° 0 mm 1 mps 685 mmHg 79%
    01:00 +15°C° 0 mm 1 mps 684 mmHg 77%
    02:00 +15°C° 0 mm 1 mps 684 mmHg 75%
    03:00 +15°C° 0 mm 1 mps 684 mmHg 72%
    04:00 +15°C° 0 mm 1 mps 684 mmHg 70%
    05:00 +18°C° 0 mm 1 mps 685 mmHg 65%
    06:00 +20°C° 0 mm 1 mps 685 mmHg 61%
    07:00 +22°C° 0 mm 1 mps 686 mmHg 57%
    08:00 +23°C° 0.1 mm 1 mps 686 mmHg 54%
    09:00 +24°C° 0.1 mm 1 mps 686 mmHg 51%
    10:00 +26°C° 0.1 mm 2 mps 686 mmHg 48%
    11:00 +26°C° 0.3 mm 2 mps 686 mmHg 48%
    12:00 +26°C° 0.3 mm 2 mps 686 mmHg 48%
    13:00 +26°C° 0.3 mm 2 mps 686 mmHg 48%
    14:00 +26°C° 0.5 mm 2 mps 686 mmHg 51%
    15:00 +25°C° 0.5 mm 2 mps 685 mmHg 54%
    16:00 +24°C° 0.5 mm 2 mps 685 mmHg 57%
    17:00 +21°C° 0.5 mm 2 mps 685 mmHg 64%
    18:00 +21°C° 0.5 mm 1 mps 685 mmHg 72%
    19:00 +19°C° 0.5 mm 1 mps 685 mmHg 79%
    20:00 +18°C° 0.2 mm 1 mps 685 mmHg 81%
    21:00 +16°C° 0.2 mm 1 mps 685 mmHg 84%
    22:00 +16°C° 0.2 mm 1 mps 686 mmHg 87%
    23:00 +15°C° 0.1 mm 1 mps 685 mmHg 88%
    Show more